When you browse on this site, cookies collect data to enhance your experience and personalize the content and advertising you see.
Visit our Privacy Policy to learn more. By continuing to use the site, you agree to this use of cookies and data.
  • In Sweden
  • List of Countries
  • For 7 days
  • Water Temperature
  • Satellite Maps
  • Weather Map
  • Weather Widgets
  • user-avatar
    Login

    Hourly Weather Newcastle

    Today, 26 March, Tuesday

    Time Temperature Precipitation Wind Pressure Humidity
    00:00 +2°C° 0 mm 2 mps 762 mmHg 91%
    01:00 +2°C° 0 mm 2 mps 762 mmHg 92%
    02:00 +2°C° 0 mm 2 mps 762 mmHg 94%
    03:00 +2°C° 0 mm 2 mps 762 mmHg 95%
    04:00 +2°C° 0 mm 2 mps 762 mmHg 95%
    05:00 +2°C° 0 mm 2 mps 762 mmHg 95%
    06:00 +2°C° 0 mm 2 mps 762 mmHg 95%
    07:00 +4°C° 0 mm 2 mps 762 mmHg 90%
    08:00 +4°C° 0 mm 3 mps 762 mmHg 85%
    09:00 +7°C° 0 mm 3 mps 762 mmHg 80%
    10:00 +8°C° 0 mm 3 mps 762 mmHg 75%
    11:00 +10°C° 0 mm 4 mps 762 mmHg 71%
    12:00 +11°C° 0 mm 4 mps 762 mmHg 66%
    13:00 +11°C° 0 mm 4 mps 761 mmHg 66%
    14:00 +11°C° 0 mm 4 mps 761 mmHg 66%
    15:00 +12°C° 0 mm 4 mps 761 mmHg 66%
    16:00 +10°C° 0 mm 4 mps 761 mmHg 70%
    17:00 +8°C° 0 mm 4 mps 761 mmHg 74%
    18:00 +7°C° 0 mm 4 mps 761 mmHg 77%
    19:00 +7°C° 0 mm 3 mps 761 mmHg 81%
    20:00 +4°C° 0 mm 3 mps 761 mmHg 85%
    21:00 +4°C° 0 mm 2 mps 762 mmHg 88%
    22:00 +4°C° 0 mm 2 mps 762 mmHg 90%
    23:00 +4°C° 0 mm 2 mps 762 mmHg 92%

    Tomorrow, 27 March, Wednesday

    Time Temperature Precipitation Wind Pressure Humidity
    00:00 +4°C° 0 mm 2 mps 762 mmHg 93%
    01:00 +3°C° 0 mm 2 mps 762 mmHg 94%
    02:00 +3°C° 0 mm 2 mps 762 mmHg 94%
    03:00 +3°C° 0 mm 2 mps 762 mmHg 95%
    04:00 +3°C° 0 mm 2 mps 762 mmHg 95%
    05:00 +3°C° 0 mm 2 mps 762 mmHg 95%
    06:00 +3°C° 0 mm 2 mps 762 mmHg 95%
    07:00 +4°C° 0 mm 2 mps 762 mmHg 90%
    08:00 +5°C° 0 mm 3 mps 762 mmHg 85%
    09:00 +8°C° 0 mm 3 mps 763 mmHg 80%
    10:00 +8°C° 0 mm 4 mps 763 mmHg 77%
    11:00 +10°C° 0 mm 4 mps 763 mmHg 73%
    12:00 +11°C° 0 mm 4 mps 763 mmHg 70%
    13:00 +11°C° 0 mm 4 mps 763 mmHg 69%
    14:00 +12°C° 0 mm 4 mps 763 mmHg 68%
    15:00 +12°C° 0 mm 4 mps 762 mmHg 68%
    16:00 +11°C° 0 mm 4 mps 762 mmHg 73%
    17:00 +9°C° 0 mm 3 mps 762 mmHg 77%
    18:00 +8°C° 0 mm 3 mps 762 mmHg 82%
    19:00 +7°C° 0 mm 3 mps 763 mmHg 85%
    20:00 +6°C° 0 mm 2 mps 763 mmHg 88%
    21:00 +5°C° 0 mm 2 mps 763 mmHg 91%
    22:00 +4°C° 0 mm 2 mps 764 mmHg 93%
    23:00 +4°C° 0 mm 2 mps 764 mmHg 94%

    Day after tomorrow, 28 March, Thursday

    Time Temperature Precipitation Wind Pressure Humidity
    00:00 +4°C° 0 mm 2 mps 764 mmHg 95%
    01:00 +4°C° 0 mm 2 mps 764 mmHg 95%
    02:00 +5°C° 0 mm 1 mps 764 mmHg 95%
    03:00 +4°C° 0 mm 1 mps 764 mmHg 95%
    04:00 +4°C° 0 mm 1 mps 764 mmHg 95%
    05:00 +4°C° 0 mm 1 mps 764 mmHg 94%
    06:00 +4°C° 0 mm 1 mps 764 mmHg 94%
    07:00 +5°C° 0 mm 2 mps 765 mmHg 90%
    08:00 +6°C° 0 mm 2 mps 765 mmHg 86%
    09:00 +8°C° 0 mm 2 mps 765 mmHg 81%
    10:00 +9°C° 0 mm 2 mps 765 mmHg 76%
    11:00 +12°C° 0 mm 2 mps 765 mmHg 71%
    12:00 +13°C° 0 mm 2 mps 765 mmHg 66%
    13:00 +13°C° 0 mm 1 mps 765 mmHg 64%
    14:00 +14°C° 0 mm 1 mps 764 mmHg 62%
    15:00 +15°C° 0 mm 1 mps 764 mmHg 60%
    16:00 +13°C° 0 mm 1 mps 764 mmHg 64%
    17:00 +12°C° 0 mm 1 mps 763 mmHg 69%
    18:00 +11°C° 0 mm 1 mps 763 mmHg 74%
    19:00 +9°C° 0 mm 0 mps 763 mmHg 76%
    20:00 +8°C° 0 mm 0 mps 764 mmHg 79%
    21:00 +7°C° 0 mm 0 mps 764 mmHg 81%
    22:00 +8°C° 0 mm 1 mps 764 mmHg 83%
    23:00 +7°C° 0 mm 1 mps 763 mmHg 84%

    29 March, Friday

    Time Temperature Precipitation Wind Pressure Humidity
    00:00 +7°C° 0 mm 1 mps 763 mmHg 85%
    01:00 +7°C° 0 mm 1 mps 763 mmHg 87%
    02:00 +5°C° 0 mm 2 mps 763 mmHg 89%
    03:00 +5°C° 0 mm 2 mps 762 mmHg 91%
    04:00 +5°C° 0 mm 2 mps 762 mmHg 91%
    05:00 +5°C° 0 mm 2 mps 762 mmHg 92%
    06:00 +4°C° 0 mm 2 mps 762 mmHg 93%
    07:00 +6°C° 0 mm 2 mps 761 mmHg 88%
    08:00 +8°C° 0 mm 2 mps 761 mmHg 83%
    09:00 +10°C° 0 mm 3 mps 761 mmHg 79%
    10:00 +11°C° 0 mm 3 mps 761 mmHg 74%
    11:00 +13°C° 0 mm 3 mps 761 mmHg 69%
    12:00 +14°C° 0 mm 3 mps 760 mmHg 64%
    13:00 +16°C° 0 mm 3 mps 760 mmHg 62%
    14:00 +16°C° 0 mm 3 mps 759 mmHg 61%
    15:00 +17°C° 0 mm 2 mps 759 mmHg 60%
    16:00 +15°C° 0 mm 2 mps 759 mmHg 65%
    17:00 +14°C° 0 mm 2 mps 758 mmHg 70%
    18:00 +13°C° 0 mm 2 mps 758 mmHg 76%
    19:00 +12°C° 0 mm 2 mps 758 mmHg 80%
    20:00 +10°C° 0 mm 2 mps 758 mmHg 84%
    21:00 +9°C° 0 mm 2 mps 758 mmHg 88%
    22:00 +9°C° 0 mm 1 mps 758 mmHg 89%
    23:00 +9°C° 0 mm 1 mps 758 mmHg 90%

    30 March, Saturday

    Time Temperature Precipitation Wind Pressure Humidity
    00:00 +8°C° 0 mm 1 mps 758 mmHg 91%
    01:00 +8°C° 0 mm 1 mps 758 mmHg 91%
    02:00 +7°C° 0 mm 0 mps 757 mmHg 91%
    03:00 +6°C° 0 mm 0 mps 757 mmHg 91%
    04:00 +6°C° 0 mm 0 mps 757 mmHg 91%
    05:00 +6°C° 0 mm 0 mps 756 mmHg 92%
    06:00 +5°C° 0 mm 0 mps 756 mmHg 92%
    07:00 +7°C° 0 mm 0 mps 756 mmHg 88%
    08:00 +9°C° 0 mm 0 mps 756 mmHg 83%
    09:00 +11°C° 0 mm 0 mps 756 mmHg 79%
    10:00 +12°C° 0 mm 0 mps 756 mmHg 75%
    11:00 +14°C° 0 mm 1 mps 756 mmHg 71%
    12:00 +16°C° 0 mm 1 mps 756 mmHg 67%
    13:00 +16°C° 0.1 mm 1 mps 755 mmHg 67%
    14:00 +16°C° 0.1 mm 2 mps 755 mmHg 66%
    15:00 +16°C° 0.1 mm 3 mps 755 mmHg 66%
    16:00 +13°C° 0.1 mm 3 mps 755 mmHg 70%
    17:00 +12°C° 0.1 mm 3 mps 755 mmHg 75%
    18:00 +11°C° 0.1 mm 4 mps 755 mmHg 79%
    19:00 +10°C° 0 mm 4 mps 756 mmHg 79%
    20:00 +8°C° 0 mm 5 mps 756 mmHg 80%
    21:00 +7°C° 0 mm 6 mps 757 mmHg 80%
    22:00 +7°C° 0 mm 6 mps 757 mmHg 78%
    23:00 +5°C° 0 mm 7 mps 758 mmHg 76%

    31 March, Sunday

    Time Temperature Precipitation Wind Pressure Humidity
    00:00 +4°C° 0 mm 7 mps 758 mmHg 74%
    01:00 +4°C° 0 mm 7 mps 759 mmHg 73%
    02:00 +3°C° 0 mm 6 mps 759 mmHg 71%
    03:00 +2°C° 0 mm 6 mps 759 mmHg 69%
    04:00 +2°C° 0 mm 6 mps 760 mmHg 69%
    05:00 +1°C° 0 mm 6 mps 760 mmHg 69%
    06:00 +1°C° 0 mm 5 mps 761 mmHg 69%
    07:00 +2°C° 0 mm 6 mps 761 mmHg 68%
    08:00 +3°C° 0 mm 7 mps 762 mmHg 67%
    09:00 +4°C° 0 mm 8 mps 762 mmHg 66%
    10:00 +4°C° 0 mm 7 mps 762 mmHg 63%
    11:00 +5°C° 0 mm 7 mps 762 mmHg 61%
    12:00 +5°C° 0 mm 7 mps 762 mmHg 58%
    13:00 +5°C° 0 mm 7 mps 762 mmHg 58%
    14:00 +5°C° 0 mm 7 mps 762 mmHg 58%
    15:00 +5°C° 0 mm 7 mps 762 mmHg 58%
    16:00 +4°C° 0 mm 6 mps 762 mmHg 61%
    17:00 +3°C° 0 mm 5 mps 762 mmHg 63%
    18:00 +2°C° 0 mm 5 mps 762 mmHg 66%
    19:00 +1°C° 0 mm 4 mps 762 mmHg 69%
    20:00 0°C° 0 mm 4 mps 762 mmHg 71%
    21:00 0°C° 0 mm 3 mps 763 mmHg 74%
    22:00 0°C° 0 mm 3 mps 763 mmHg 77%
    23:00 -1°C° 0 mm 3 mps 762 mmHg 80%
    Show more